User: anonymous   Login
Location: Recife
(8.0585°S, 34.8848°W)
Time: 11:53:25
(UTC-03:00)
Language:

S-56A Canister/Altair - Orbit

View from above orbital plane
View from above orbital plane
View from above satellite
View from above satellite

Ground track
Ground track

The orbit is defined by the following mean orbital elements,

1 00082U          26104.08976122 +.00000000 +00000-0 +12098-3 0 00004
2 00082  38.8637 237.8751 1167698 275.7393  71.1591 12.27891673    04
Epoch (UTC): 14 April 2026 02:09:15
Eccentricity: 0.1167698
inclination: 38.8637°
perigee height: 632 km
apogee height: 2485 km
right ascension of ascending node: 237.8751°
argument of perigee: 275.7393°
revolutions per day: 12.27891673
mean anomaly at epoch: 71.1591°

The dashed part of the orbit path shows where the satellite is in the earth's shadow,  

DLR